Find Starlink 6172

NORAD ID: 57130 Int'l Des: 2023-090 Owner: SPXS Country: US Constellation: starlink operational
LEOCIRCULAR

实时位置

正在加载3D地球...

关于 Starlink 6172

正在加载描述...

即将过境

Passes for default location (London). Set your location on the main map for personalized predictions.

高度历史

Loading altitude history...

两行轨道根数

1 57130U 23090AF 26105.16668980 .00028262 00000-0 12106-2 0 9990
2 57130 43.0004 74.8538 0000672 291.8456 264.2021 15.22266257 5677
Epoch: Apr 15, 2026 • Age: 6 hours

当前状态

高度 502.3 km
速度 7.61 km/s
星下点 -16.40°S, 86.96°W
发射日期 Jun 23, 2023
运行时间 2.8 years
类型 internet

技术详情

分类 Payload
质量 305.00 kg
干质量 290.00 kg
总质量 305.00 kg
长度 0.20 m
直径 2.80 m
跨度 9.00 m
形状 Box + pan
制造商 SPXS
平台类型 Starlink
阶段状态 In Orbit
所有者/国家 SPXS/US

Most Searched